This is the latest recevied weather packets stored in our database for station/object IW5CTE-13. If no packets are shown the sender has not sent any weather packets the latest 10 day(s).
| Time | Temp. | Humidity | Pressure | Rain* | Wind** | Luminosity | Snow |
|---|---|---|---|---|---|---|---|
| 1777441650 | 12.22° C | 70% | 1016.6 hPa | - | - | - | - |
| 1777441050 | 11.67° C | 70% | 1016.6 hPa | - | - | - | - |
| 1777440450 | 11.67° C | 69% | 1016.6 hPa | - | - | - | - |
| 1777439851 | 11.67° C | 69% | 1016.6 hPa | - | - | - | - |
| 1777439250 | 11.11° C | 68% | 1016.7 hPa | - | - | - | - |
| 1777438650 | 11.11° C | 68% | 1016.6 hPa | - | - | - | - |
| 1777438051 | 11.11° C | 68% | 1016.6 hPa | - | - | - | - |
| 1777437451 | 11.11° C | 67% | 1016.5 hPa | - | - | - | - |
| 1777436851 | 11.67° C | 67% | 1016.5 hPa | - | - | - | - |
| 1777436251 | 11.67° C | 67% | 1016.5 hPa | - | - | - | - |
| 1777435651 | 11.11° C | 67% | 1016.6 hPa | - | - | - | - |
| 1777435050 | 11.67° C | 68% | 1016.5 hPa | - | - | - | - |
| 1777434450 | 11.11° C | 68% | 1016.4 hPa | - | - | - | - |
| 1777433850 | 11.67° C | 68% | 1016.3 hPa | - | - | - | - |
| 1777433251 | 11.67° C | 68% | 1016.3 hPa | - | - | - | - |
| 1777432650 | 11.67° C | 69% | 1016.4 hPa | - | - | - | - |
| 1777432051 | 11.67° C | 69% | 1016.6 hPa | - | - | - | - |
| 1777431451 | 11.67° C | 69% | 1016.8 hPa | - | - | - | - |
| 1777430851 | 11.67° C | 69% | 1016.9 hPa | - | - | - | - |
| 1777430250 | 12.22° C | 69% | 1016.8 hPa | - | - | - | - |
| 1777429651 | 12.22° C | 67% | 1016.7 hPa | - | - | - | - |
| 1777429050 | 12.22° C | 68% | 1016.7 hPa | - | - | - | - |
| 1777428450 | 12.22° C | 67% | 1016.8 hPa | - | - | - | - |
| 1777427850 | 12.78° C | 68% | 1016.7 hPa | - | - | - | - |
| 1777427251 | 12.78° C | 68% | 1016.6 hPa | - | - | - | - |
* Rain since midnight (hover to see other rain measurements)
** Current wind speed in m/s (hover to see current wind gust speed)